Location: Woodhurst
(52.3667°N, 0.0667°W)
Time: 20:53:10
(UTC+00:00)

Cosmos 1867 - Pass Details

Date: 19 May 2025
Orbit: 775 x 798 km, 65.0° (Epoch: 18 June)

Event Time Altitude Azimuth Distance (km) Brightness Sun altitude
Rises 21:29:15 0° 316° (NW) 3,314 8.8 -10.9°
Reaches altitude 10° 21:31:44 10° 312° (NW) 2,380 7.5 -11.1°
Maximum altitude 21:37:03 54° 236° (SW) 963 4.0 -11.5°
Enters shadow 21:41:23 15° 163° (SSE) 2,015 5.1 -11.9°
